EW5967 Weather Reports


Display with metric or nautical units.
time (UTC)temp
F
wind
direction
speed
MPH
gust
MPH
rain 1hr
in
rain 24hr
in
rain mn
in
humidity
%
barometer
mb
20260505034545 63 213 4.0 11.0 0.00 0.00 0.00 28 1004.1
20260505034045 63 229 5.0 11.0 0.00 0.00 0.00 27 1004.0
20260505033545 64 246 3.0 15.0 0.00 0.00 0.00 27 1003.9
20260505033048 64 184 7.0 15.0 0.00 0.00 0.00 27 1003.8
20260505032546 64 211 3.0 10.0 0.00 0.00 0.00 26 1003.8
20260505032045 64 211 4.0 13.0 0.00 0.00 0.00 26 1003.6
20260505031545 64 262 5.0 11.0 0.00 0.00 0.00 25 1003.5
20260505031045 64 210 3.0 11.0 0.00 0.00 0.00 25 1003.5
20260505030545 64 210 5.0 14.0 0.00 0.00 0.00 24 1003.4
20260505030045 65 213 6.0 14.0 0.00 0.00 0.00 24 1003.3
20260505025546 65 229 5.0 12.0 0.00 0.00 0.00 24 1003.2
20260505025044 65 226 3.0 12.0 0.00 0.00 0.00 23 1003.2
20260505024546 65 234 4.0 21.0 0.00 0.00 0.00 23 1003.0
20260505024045 65 214 7.0 21.0 0.00 0.00 0.00 23 1002.9
20260505023544 65 214 3.0 16.0 0.00 0.00 0.00 22 1002.9
20260505023050 65 258 7.0 16.0 0.00 0.00 0.00 22 1002.8
20260505022544 65 240 5.0 15.0 0.00 0.00 0.00 22 1002.9
20260505022044 66 208 5.0 12.0 0.00 0.00 0.00 22 1002.8
20260505021543 66 219 4.0 12.0 0.00 0.00 0.00 22 1002.9
20260505021044 66 254 3.0 15.0 0.00 0.00 0.00 22 1002.9
20260505020543 66 244 5.0 16.0 0.00 0.00 0.00 21 1002.9
20260505020043 66 195 8.0 15.0 0.00 0.00 0.00 21 1002.7
20260505015543 67 250 6.0 13.0 0.00 0.00 0.00 21 1002.8
20260505015043 67 215 4.0 11.0 0.00 0.00 0.00 21 1002.8
20260505014543 67 238 4.0 17.0 0.00 0.00 0.00 21 1002.8
20260505014045 67 202 6.0 14.0 0.00 0.00 0.00 20 1002.9
20260505013542 67 220 5.0 16.0 0.00 0.00 0.00 20 1002.7
20260505013042 68 225 7.0 17.0 0.00 0.00 0.00 21 1002.8
20260505012542 68 201 4.0 17.0 0.00 0.00 0.00 20 1002.8
20260505012043 69 242 7.0 17.0 0.00 0.00 0.00 20 1002.6
20260505011550 69 187 5.0 15.0 0.00 0.00 0.00 20 1002.7
20260505011043 69 217 7.0 13.0 0.00 0.00 0.00 20 1002.7
20260505010540 70 232 4.0 12.0 0.00 0.00 0.00 21 1002.7
20260505010042 69 252 4.0 14.0 0.00 0.00 0.00 21 1002.9
20260505005539 70 229 6.0 10.0 0.00 0.00 0.00 21 1002.8
20260505005039 70 221 4.0 12.0 0.00 0.00 0.00 21 1002.8
20260505004540 70 216 5.0 16.0 0.00 0.00 0.00 21 1002.8
20260505004041 70 223 5.0 16.0 0.00 0.00 0.00 21 1002.8
20260505003540 70 223 5.0 12.0 0.00 0.00 0.00 21 1002.8
20260505003037 70 201 4.0 19.0 0.00 0.00 0.00 21 1002.8
20260505002537 70 209 6.0 17.0 0.00 0.00 0.00 21 1002.8
20260505002037 70 227 4.0 14.0 0.00 0.00 0.00 22 1002.8
20260505001537 70 236 5.0 13.0 0.00 0.00 0.00 22 1002.9
20260505001036 71 213 7.0 14.0 0.00 0.00 0.00 21 1002.9
20260505000540 71 245 6.0 15.0 0.00 0.00 0.00 21 1002.9
20260505000035 71 244 6.0 15.0 0.00 0.00 0.00 21 1002.9
20260504235535 71 192 8.0 18.0 0.00 0.00 0.00 22 1002.9
20260504235036 72 206 4.0 14.0 0.00 0.00 0.00 22 1002.8
20260504234535 72 261 6.0 14.0 0.00 0.00 0.00 22 1002.8
20260504234033 72 192 5.0 15.0 0.00 0.00 0.00 22 1002.8
20260504233537 72 232 6.0 12.0 0.00 0.00 0.00 22 1002.9
20260504233032 71 226 6.0 12.0 0.00 0.00 0.00 23 1002.9
20260504232532 71 235 4.0 11.0 0.00 0.00 0.00 23 1002.9
20260504232031 70 207 6.0 18.0 0.00 0.00 0.00 23 1003.1
20260504231531 70 207 6.0 18.0 0.00 0.00 0.00 23 1003.0
20260504231033 70 221 5.0 17.0 0.00 0.00 0.00 23 1003.0
20260504230531 71 241 6.0 16.0 0.00 0.00 0.00 22 1003.0
20260504230031 71 235 5.0 12.0 0.00 0.00 0.00 23 1003.2
20260504225531 71 174 4.0 12.0 0.00 0.00 0.00 22 1003.1
20260504225029 71 217 5.0 17.0 0.00 0.00 0.00 22 1003.2
20260504224530 71 180 7.0 17.0 0.00 0.00 0.00 22 1003.3
20260504224029 71 192 5.0 12.0 0.00 0.00 0.00 22 1003.3
20260504223529 71 210 6.0 17.0 0.00 0.00 0.00 22 1003.2
20260504223029 71 169 10.0 18.0 0.00 0.00 0.00 21 1003.3
20260504222529 71 209 9.0 20.0 0.00 0.00 0.00 20 1003.5
20260504222027 72 209 9.0 20.0 0.00 0.00 0.00 19 1003.5
20260504221527 72 219 5.0 12.0 0.00 0.00 0.00 19 1003.5
20260504221029 72 179 5.0 17.0 0.00 0.00 0.00 19 1003.5
20260504220527 71 190 9.0 17.0 0.00 0.00 0.00 18 1003.6
20260504220027 71 196 9.0 21.0 0.00 0.00 0.00 16 1003.8
20260504215525 71 202 9.0 20.0 0.00 0.00 0.00 17 1003.6
20260504215027 71 206 8.0 20.0 0.00 0.00 0.00 16 1003.6
20260504214526 72 186 9.0 16.0 0.00 0.00 0.00 16 1003.7
20260504214027 73 213 6.0 12.0 0.00 0.00 0.00 16 1003.8
20260504213525 73 238 5.0 10.0 0.00 0.00 0.00 17 1003.8
20260504213026 72 203 5.0 11.0 0.00 0.00 0.00 18 1003.8
20260504212525 72 261 6.0 11.0 0.00 0.00 0.00 19 1003.8
20260504212025 73 242 5.0 11.0 0.00 0.00 0.00 18 1003.9
20260504211526 72 225 4.0 12.0 0.00 0.00 0.00 17 1003.9
20260504211025 73 249 4.0 12.0 0.00 0.00 0.00 18 1004.0
20260504210525 73 207 5.0 9.0 0.00 0.00 0.00 17 1003.9
20260504210025 73 226 5.0 11.0 0.00 0.00 0.00 17 1003.8
20260504205524 72 232 3.0 11.0 0.00 0.00 0.00 18 1003.7
20260504205023 72 208 5.0 11.0 0.00 0.00 0.00 17 1003.9
20260504204523 72 227 3.0 14.0 0.00 0.00 0.00 17 1003.8
20260504204024 72 224 3.0 14.0 0.00 0.00 0.00 15 1003.8
20260504203523 72 201 5.0 14.0 0.00 0.00 0.00 15 1003.8
20260504203024 73 220 7.0 14.0 0.00 0.00 0.00 14 1003.9
20260504202523 73 242 4.0 11.0 0.00 0.00 0.00 16 1003.8
20260504202021 73 225 4.0 11.0 0.00 0.00 0.00 14 1003.9
20260504201520 72 195 3.0 13.0 0.00 0.00 0.00 14 1003.9
20260504201020 72 225 4.0 17.0 0.00 0.00 0.00 14 1003.9
20260504200520 72 253 5.0 17.0 0.00 0.00 0.00 16 1004.0
20260504200034 72 206 4.0 13.0 0.00 0.00 0.00 15 1003.9
20260504195521 71 198 5.0 13.0 0.00 0.00 0.00 17 1003.9
20260504195019 72 219 5.0 10.0 0.00 0.00 0.00 18 1004.0
20260504194520 72 158 6.0 11.0 0.00 0.00 0.00 16 1004.0
20260504194018 72 208 4.0 13.0 0.00 0.00 0.00 17 1004.0
20260504193517 71 240 2.0 7.0 0.00 0.00 0.00 14 1004.0
20260504193017 71 181 2.0 11.0 0.00 0.00 0.00 18 1004.1
20260504192515 71 205 4.0 15.0 0.00 0.00 0.00 19 1004.1
20260504192017 70 178 8.0 15.0 0.00 0.00 0.00 22 1004.2
20260504191527 70 119 7.0 16.0 0.00 0.00 0.00 22 1004.3
20260504191015 70 184 7.0 16.0 0.00 0.00 0.00 23 1004.3
20260504190515 70 137 5.0 17.0 0.00 0.00 0.00 23 1004.3
20260504190115 69 102 8.0 20.0 0.00 0.00 0.00 24 1004.3
20260504185514 69 131 9.0 20.0 0.00 0.00 0.00 25 1004.3
20260504185014 69 190 8.0 17.0 0.00 0.00 0.00 25 1004.4
20260504184515 69 101 5.0 16.0 0.00 0.00 0.00 25 1004.5
20260504184015 69 121 6.0 17.0 0.00 0.00 0.00 24 1004.4
20260504183514 68 140 6.0 17.0 0.00 0.00 0.00 24 1004.5
20260504183032 67 117 8.0 17.0 0.00 0.00 0.00 24 1004.5
20260504182514 68 143 8.0 15.0 0.00 0.00 0.00 24 1004.5
20260504182012 68 137 8.0 14.0 0.00 0.00 0.00 26 1004.6
20260504181522 68 142 7.0 13.0 0.00 0.00 0.00 26 1004.7
20260504181013 67 66 3.0 14.0 0.00 0.00 0.00 27 1004.7
20260504180516 68 155 5.0 13.0 0.00 0.00 0.00 27 1004.7
20260504180014 67 152 2.0 15.0 0.00 0.00 0.00 27 1004.6
20260504175513 67 177 6.0 15.0 0.00 0.00 0.00 27 1004.7
20260504175012 67 163 5.0 16.0 0.00 0.00 0.00 28 1004.7
20260504174515 67 78 6.0 16.0 0.00 0.00 0.00 29 1004.7
20260504174011 68 130 5.0 14.0 0.00 0.00 0.00 29 1004.6
20260504173512 68 191 4.0 14.0 0.00 0.00 0.00 31 1004.7
20260504173009 67 147 2.0 14.0 0.00 0.00 0.00 30 1004.6
20260504172511 66 157 5.0 14.0 0.00 0.00 0.00 33 1004.6
20260504172009 66 147 6.0 14.0 0.00 0.00 0.00 31 1004.5
20260504171509 66 139 4.0 9.0 0.00 0.00 0.00 32 1004.5
20260504171013 65 96 3.0 9.0 0.00 0.00 0.00 36 1004.3
20260504170513 65 90 1.0 6.0 0.00 0.00 0.00 37 1004.4
20260504151003 59 29 2.0 5.0 0.00 0.00 0.00 43 1004.1
20260504150504 59 59 0.0 5.0 0.00 0.00 0.00 44 1004.2
20260504141057 58 36 0.0 4.0 0.00 0.00 0.00 45 1003.6
20260504140556 58 36 0.0 4.0 0.00 0.00 0.00 45 1003.6
20260504130548 59 239 2.0 4.0 0.00 0.00 0.00 39 1002.8
20260504110532 62 200 1.0 7.0 0.00 0.00 0.00 36 1002.6
20260504100520 65 136 0.0 5.0 0.00 0.00 0.00 29 1002.5
20260504082005 69 214 1.0 5.0 0.00 0.00 0.00 24 1002.4
20260504081505 69 187 2.0 5.0 0.00 0.00 0.00 24 1002.5
20260504081002 69 208 1.0 4.0 0.00 0.00 0.00 24 1002.5
20260504080501 70 217 1.0 4.0 0.00 0.00 0.00 24 1002.5
20260504050546 73 277 4.0 11.0 0.00 0.00 0.00 17 1001.8
20260504045546 73 263 4.0 12.0 0.00 0.00 0.00 17 1001.8
20260504045046 73 219 3.0 12.0 0.00 0.00 0.00 17 1001.8
20260504044552 73 238 4.0 12.0 0.00 0.00 0.00 17 1001.8
20260504044045 73 246 3.0 11.0 0.00 0.00 0.00 17 1001.8
20260504043545 73 223 4.0 11.0 0.00 0.00 0.00 17 1001.8
20260504043045 74 244 3.0 11.0 0.00 0.00 0.00 17 1001.9
20260504042544 74 237 3.0 10.0 0.00 0.00 0.00 18 1001.8
20260504042045 74 222 3.0 11.0 0.00 0.00 0.00 18 1001.7
20260504041544 74 235 4.0 11.0 0.00 0.00 0.00 18 1001.7
20260504041044 74 229 3.0 9.0 0.00 0.00 0.00 18 1001.7
20260504040544 74 248 2.0 11.0 0.00 0.00 0.00 17 1001.6
20260504040100 74 265 3.0 11.0 0.00 0.00 0.00 17 1001.4
20260504035547 74 244 3.0 10.0 0.00 0.00 0.00 17 1001.5
20260504035044 74 221 4.0 10.0 0.00 0.00 0.00 17 1001.5